Location: Chimay
(50.0486°N, 4.3171°E)
Time: 20:51:11
(UTC+00:00)

Lacrosse 4 Rocket - Pass Details

Date: 08 August 2020
Orbit: 544 x 615 km, 68.0° (Epoch: 22 September)

Event Time Altitude Azimuth Distance (km) Brightness Sun altitude
Exits shadow 22:45:20 19° 78° (ENE) 1,411 3.3 -22.7°
Drops below altitude 10° 22:47:05 10° 58° (ENE) 1,882 4.2 -22.8°
Sets 22:49:36 0° 44° (NE) 2,771 5.3 -22.9°
